Ellensburg, WA

2:22 PM PST on February 23, 2017 (GMT -0800)
Bowers

Weather History for KELN - May, 2012

Change the Weather History Date:

Thursday, May 10, 2012

  Actual Average (KYKM) Record (KYKM)
Temperature  
Mean Temperature 48 °F -  
Max Temperature 60 °F 70 °F 97 °F (2013)
Min Temperature 36 °F 41 °F 25 °F (1999)
Degree Days  
Heating Degree Days 17    
Moisture  
Dew Point 24 °F    
Average Humidity 41    
Maximum Humidity 62    
Minimum Humidity 22    
Precipitation  
Precipitation 0.00 in - - ()
Sea Level Pressure  
Sea Level Pressure 30.27 in    
Wind  
Wind Speed 15 mph (NW)    
Max Wind Speed 24 mph    
Max Gust Speed 31 mph    
Visibility 10 miles    
Events      
Averages and records for this station are not official NWS values.
T = Trace of Precipitation, MM = Missing Value Source: NWS Daily Summary

Daily Weather History Graph

Daily Weather History Graph

Search for Another Location

Airport or City:

Trip Planner

Search our weather history database for the weather conditions in past years. The results will help you decide how hot, cold, wet, or windy it might be!

Date:

Astronomy

May. 10, 2012 Rise Set
Actual Time 5:32 AM PDT 8:25 PM PDT
Civil Twilight 4:56 AM PDT 9:00 PM PDT
Nautical Twilight 4:11 AM PDT 9:46 PM PDT
Astronomical Twilight 3:18 AM PDT 10:40 PM PDT
Moon 12:28 AM PDT (5/10) 10:02 AM PDT (5/10)
Length of Visible Light 16h 04m
Length of Day
14h 53m
Waning Gibbous, 72% of the Moon is Illuminated
May 10
Waning Gibbous
May 12
Last Quarter
May 20
New
May 28
First Quarter
Jun 4
Full

Hourly Weather History & Observations

Time (PDT) Temp. Windchill Dew Point Humidity Pressure Visibility Wind Dir Wind Speed Gust Speed Precip Events Conditions
12:53 AM 39.0 °F 31.4 °F 24.1 °F 55% 30.24 in 10.0 mi WNW 12.7 mph - N/A   Clear
1:53 AM 37.9 °F 28.9 °F 23.0 °F 55% 30.25 in 10.0 mi WNW 16.1 mph - N/A   Clear
2:53 AM 36.0 °F 27.5 °F 24.1 °F 62% 30.25 in 10.0 mi WNW 12.7 mph - N/A   Clear
3:53 AM 37.9 °F 32.1 °F 24.1 °F 57% 30.27 in 10.0 mi NW 8.1 mph - N/A   Clear
4:53 AM 37.0 °F 29.3 °F 24.1 °F 59% 30.29 in 10.0 mi NNW 11.5 mph - N/A   Clear
5:53 AM 37.0 °F 29.8 °F 24.1 °F 59% 30.31 in 10.0 mi NNW 10.4 mph - N/A   Clear
6:53 AM 39.9 °F 32.1 °F 25.0 °F 55% 30.30 in 10.0 mi NW 13.8 mph - N/A   Clear
7:53 AM 45.0 °F 37.6 °F 26.1 °F 48% 30.33 in 10.0 mi NW 17.3 mph 20.7 mph N/A   Clear
8:53 AM 48.0 °F - 25.0 °F 41% 30.32 in 10.0 mi WNW 17.3 mph - N/A   Clear
9:53 AM 50.0 °F - 26.1 °F 39% 30.32 in 10.0 mi WNW 16.1 mph 24.2 mph N/A   Clear
10:53 AM 53.1 °F - 27.0 °F 37% 30.31 in 10.0 mi WNW 15.0 mph 24.2 mph N/A   Clear
11:53 AM 55.9 °F - 25.0 °F 30% 30.29 in 10.0 mi NW 15.0 mph 21.9 mph N/A   Clear
12:53 PM 57.9 °F - 21.0 °F 24% 30.27 in 10.0 mi NW 18.4 mph 26.5 mph N/A   Clear
1:53 PM 59.0 °F - 21.0 °F 23% 30.26 in 10.0 mi NW 24.2 mph 31.1 mph N/A   Clear
2:53 PM 60.1 °F - 21.0 °F 22% 30.26 in 10.0 mi NW 18.4 mph 26.5 mph N/A   Clear
3:53 PM 60.1 °F - 21.0 °F 22% 30.25 in 10.0 mi NW 24.2 mph 31.1 mph N/A   Clear
4:53 PM 57.9 °F - 24.1 °F 27% 30.25 in 10.0 mi NW 24.2 mph 29.9 mph N/A   Clear
5:53 PM 57.0 °F - 24.1 °F 28% 30.25 in 10.0 mi WNW 23.0 mph 31.1 mph N/A   Clear
6:53 PM 54.0 °F - 25.0 °F 33% 30.24 in 10.0 mi WNW 18.4 mph 27.6 mph N/A   Clear
7:53 PM 50.0 °F - 24.1 °F 36% 30.24 in 10.0 mi NW 17.3 mph 24.2 mph N/A   Clear
8:53 PM 46.0 °F 40.2 °F 24.1 °F 42% 30.25 in 10.0 mi NW 12.7 mph - N/A   Clear
9:53 PM 45.0 °F 38.9 °F 24.1 °F 44% 30.27 in 10.0 mi NW 12.7 mph - N/A   Clear
10:53 PM 43.0 °F 36.4 °F 24.1 °F 47% 30.27 in 10.0 mi NW 12.7 mph - N/A   Clear
11:53 PM 42.1 °F 36.6 °F 24.1 °F 49% 30.27 in 10.0 mi NW 9.2 mph - N/A   Clear